Location: Hohenfelde
(53.8441°N, 9.6220°E)
Time: 11:39:13
(UTC+00:00)

Cosmos 1703 Rocket - Pass Details

Date: 14 July 2020
Orbit: 605 x 634 km, 82.5° (Epoch: 12 August)

Event Time Altitude Azimuth Distance (km) Brightness Sun altitude
Rises 00:27:55 0° 348° (NNW) 2,941 8.3 -13.4°
Reaches altitude 10° 00:30:11 10° 348° (NNW) 2,025 7.3 -13.3°
Maximum altitude 00:34:41 90° 259° (WSW) 636 3.6 -13.1°
Enters shadow 00:38:06 17° 170° (S) 1,590 5.1 -13.0°
